Location: USNO
(38.9242°N, 77.0663°W)
Time: 07:10:04
(UTC-05:00)

Envisat - Pass Details

Date: 09 October 2017
Orbit: 764 x 766 km, 98.2° (Epoch: 17 December)

Event Time Altitude Azimuth Distance (km) Brightness Sun altitude
Exits shadow 21:44:42 29° 295° (WNW) 1,382 4.7 -36.4°
Drops below altitude 10° 21:47:54 10° 328° (NNW) 2,310 6.0 -37.0°
Sets 21:50:26 0° 338° (NNW) 3,241 6.8 -37.4°
